Location: L�gaud
(45.7115°N, 1.7775°E)
Time: 15:06:23
(UTC+00:00)

SL-4 R/B - Pass Details

Date: 03 March 2021
Orbit: 428 x 663 km, 51.6° (Epoch: 15 April)

Event Time Altitude Azimuth Distance (km) Brightness Sun altitude
Rises 18:10:11 0° 287° (WNW) 2,524 7.0 -5.6°
Reaches altitude 10° 18:12:34 10° 299° (WNW) 1,611 5.4 -6.0°
Maximum altitude 18:15:48 30° 2° (N) 825 2.9 -6.6°
Drops below altitude 10° 18:18:54 10° 66° (ENE) 1,544 3.7 -7.1°
Enters shadow 18:19:15 - 69° (ENE) 1,668 3.9 -7.2°
